BEIDOU-3 IGSO-1 (C38)

Last updated on Mon Oct 20 2025 00:03:25 GMT+0000 (Coordinated Universal Time)

1 44204U 19023A 25291.71940478 -.00000230 00000+0 00000+0 0 9992 2 44204 58.3582 40.1458 0026289 218.4899 145.4692 1.00261230 4793
UTC large
Height (km)
Speed (km/s)
/
Latitude / Longitude
Inclination (degrees)
Orbital Period (minutes)
Azimuth
Elevation
Range (km)
Doppler Factor

Next 0 passes for location: London (51.5072 / 0.1276)

Sorry there are no passes over London.